Location: Piotrkow Trybunalski
(51.4000°N, 19.6830°E)
Time: 06:06:38
(UTC+01:00)

Vanguard 1 Rocket - All Passes

Search period start: 30 January 2023 00:00
Search period end: 09 February 2023 00:00
Orbit: 650 x 4225 km, 34.3° (Epoch: 29 January)

Date Brightness Start Highest point End Pass type
(mag) Time Alt. Az. Time Alt. Az. Time Alt. Az.
30 Jan - 11:37:18 10° S 11:46:53 25° SE 12:01:25 10° E daylight
30 Jan - 13:58:41 10° SW 14:12:42 44° SSE 14:34:50 10° ESE daylight
30 Jan - 16:23:37 10° WSW 16:41:24 45° SSW 17:04:54 10° SE visible
30 Jan - 18:52:01 10° W 19:10:11 30° SW 19:29:36 10° SSE visible
31 Jan - 10:30:01 10° SSE 10:36:01 15° SE 10:43:51 10° E daylight
31 Jan - 12:48:24 10° SW 13:00:10 37° SSE 13:19:22 10° E daylight
31 Jan - 15:11:57 10° WSW 15:27:42 47° S 15:51:02 10° ESE daylight
31 Jan - 17:38:31 10° W 17:56:43 37° SSW 18:18:29 10° SSE visible
31 Jan - 20:11:05 10° W 20:24:09 17° SW 20:37:24 10° SSW visible
01 Feb - 11:38:57 10° SSW 11:48:26 28° SE 12:03:27 10° E daylight
01 Feb - 14:00:56 10° WSW 14:14:27 45° S 14:36:19 10° ESE daylight
01 Feb - 16:26:03 10° WSW 16:43:02 42° SSW 17:05:57 10° SE visible
01 Feb - 18:54:58 10° W 19:11:25 25° SW 19:29:25 10° S visible
02 Feb - 10:30:49 10° S 10:37:29 18° SE 10:46:45 10° E daylight
02 Feb - 12:50:32 10° SW 13:01:55 39° SSE 13:21:00 10° ESE daylight
02 Feb - 15:14:22 10° WSW 15:29:28 45° S 15:52:16 10° SE daylight
02 Feb - 17:41:10 10° W 17:58:10 33° SSW 18:18:53 10° SSE visible
02 Feb - 20:16:44 10° WSW 20:25:13 13° SW 20:33:54 10° SSW visible
03 Feb - 11:40:51 10° SSW 11:50:07 31° SSE 12:05:19 10° E daylight
03 Feb - 14:03:18 10° WSW 14:16:18 44° S 14:37:42 10° ESE daylight
03 Feb - 16:28:35 10° W 16:44:41 38° SSW 17:06:43 10° SE visible
03 Feb - 18:58:26 10° W 19:12:40 21° SW 19:28:27 10° S visible
04 Feb - 10:32:11 10° S 10:39:04 20° SE 10:49:14 10° E daylight
04 Feb - 12:52:49 10° SW 13:03:46 40° SSE 13:22:32 10° ESE daylight
04 Feb - 15:16:51 10° WSW 15:31:17 42° S 15:53:18 10° SE daylight
04 Feb - 17:44:04 10° W 17:59:38 28° SW 18:18:48 10° SSE visible
05 Feb - 09:27:02 10° SE 09:28:39 10° SE 09:30:24 10° ESE daylight
05 Feb - 11:42:57 10° SSW 11:51:57 32° SSE 12:07:05 10° E daylight
05 Feb - 14:05:45 10° WSW 14:18:14 43° S 14:38:56 10° ESE daylight
05 Feb - 16:31:17 10° W 16:46:22 34° SSW 17:07:09 10° SSE visible
05 Feb - 19:02:51 10° WSW 19:13:58 16° SW 19:26:14 10° SSW visible
06 Feb - 10:33:53 10° S 10:40:49 23° SE 10:51:27 10° E daylight
06 Feb - 12:55:13 10° SW 13:05:43 40° S 13:23:59 10° ESE daylight
06 Feb - 15:19:27 10° WSW 15:33:08 38° SSW 15:54:06 10° SE daylight
06 Feb - 17:47:21 10° W 18:01:09 23° SW 18:18:06 10° S visible
07 Feb - 09:26:39 10° SSE 09:30:18 13° SE 09:34:47 10° ESE daylight
07 Feb - 11:45:12 10° SW 11:53:53 34° SSE 12:08:47 10° ESE daylight
07 Feb - 14:08:19 10° WSW 14:20:13 40° S 14:40:02 10° SE daylight
07 Feb - 16:34:11 10° W 16:48:05 29° SSW 17:07:12 10° SSE daylight
07 Feb - 19:10:10 10° WSW 19:15:19 11° SW 19:20:46 10° SW visible
08 Feb - 10:35:52 10° SSW 10:42:42 25° SSE 10:53:30 10° ESE daylight
08 Feb - 12:57:42 10° WSW 13:07:47 39° S 13:25:19 10° ESE daylight
08 Feb - 15:22:11 10° WSW 15:35:02 34° SSW 15:54:37 10° SE daylight
08 Feb - 17:51:17 10° WSW 18:02:43 18° SW 18:16:27 10° S visible
